DECAYED

STARLINK-2077, 47363 (Decayed)

Orbit data source: Space-Track

STARLINK-2077, 47363 was a payload satellite owned by SpaceX/Seattle (US) in LEO that was launched on Wed, 20 Jan 2021 UTC via an FALCON 9 launch vehicle from the Air Force Eastern Test Range (AFETR). Payload-class satellites include a variety of spacecraft equipped with specific instruments for various scientific and technological missions. These include communications satellites like Starlink; space stations such as the ISS; scientific satellites like the Hubble; Earth observation satellites from companies like Planet Labs, Umbra, and HawkEye 360; GPS; miniature CubeSats for education and research; and military/defense satellites.

Not visible in the next 10 days
Identifier
47363, 2021-005Q
Orbit
Decayed
Country
Flag of USUS
Related business
Manufacturer
SpaceX/Seattle
Mission
Decayed Commercial Communications
Bus & Motor
STARLINK, Unknown motor
Mass
260 kg wet, ~248 kg dry
Launch date (UTC)
2021-01-20 (5 years ago)
Launch vehicle
FALCON 9
Launch site
Air Force Eastern Test Range (AFETR)
Object type
Payload
Rocket body
Debris
Shape & HBR
Box + 1 Pan, 10.1 m
Radar Cross Section
13.562 m², Large (>1 m²)

Expand to show TLE details & history
Last TLE update: 1 year ago

TLE from 1 year ago
0 STARLINK-2077
1 47363U 21005Q   25009.74552870  .07924267  12225-4  13966-2 0  9995
2 47363  53.0279 133.6210 0007388 326.1438 145.4970 16.31901158219568
Epoch: 2025-01-09T17:53Z
TLE epoch observation values (Epoch: 2025-01-09T17:53:33.679Z)
Latitude
48.08606°
Longitude
-120.77802°
Altitude
196.764 km
Speed
7.792 km/s
True Right ascension
17h 08m 31s
True Declination
47° 54' 02"
Sunlit
Object was in daylight at epoch
Visualization orbit readout
Latitude
Unknown
Longitude
Unknown
Altitude
Unknown
Speed
Unknown
Apparent Right ascension
Unknown
Apparent Declination
Unknown
Sunlit
N/A
Visualization observer readout
Local Sidereal Time
21:32:55
Azimuth
Unknown
Elevation
Unknown
Doppler factor
Unknown
Orbital elements
Apogee altitude
192.576 km
Perigee altitude
182.874 km
Semi-major axis
6,565.862 km
Eccentricity
0.00074
Inclination
53.0279°
RAAN
133.621°
Arg. of periapsis
326.1438°
True anomaly
145.54492°
Mean anomaly
145.497°
Eccentric anomaly
145.52096°
Mean motion
4.07949 °/min
Orbital period
88.25 mins
BSTAR
0.0013966
Loading maneuver chart data...
Computing Atmospheric mass density...
Loading historical data...
Loading historical data...
Loading historical data...
Loading historical data...
Loading historical data...
Loading historical data...
Loading historical data...

Documentation

Showing up to 5 results
|